| time (UTC) | temp F | wind direction | speed MPH | gust MPH | rain 1hr in | rain 24hr in | rain mn in | humidity % | barometer mb |
| 20260510211056 | 90 | 240 | 4.0 | 9.0 | 0.00 | 0.00 | 0.00 | 58 | 1015.2 |
| 20260510210555 | 90 | 256 | 3.0 | 9.0 | 0.00 | 0.00 | 0.00 | 59 | 1015.2 |
| 20260510210057 | 90 | 259 | 4.0 | 10.0 | 0.00 | 0.00 | 0.00 | 58 | 1015.4 |
| 20260510205555 | 90 | 257 | 3.0 | 10.0 | 0.00 | 0.00 | 0.00 | 58 | 1015.4 |
| 20260510205057 | 90 | 331 | 3.0 | 9.0 | 0.00 | 0.00 | 0.00 | 58 | 1015.3 |
| 20260510204600 | 90 | 242 | 4.0 | 11.0 | 0.00 | 0.00 | 0.00 | 58 | 1015.4 |
| 20260510204054 | 90 | 310 | 4.0 | 11.0 | 0.00 | 0.00 | 0.00 | 58 | 1015.3 |
| 20260510203555 | 91 | 292 | 5.0 | 11.0 | 0.00 | 0.00 | 0.00 | 58 | 1015.2 |
| 20260510203058 | 91 | 201 | 4.0 | 11.0 | 0.00 | 0.00 | 0.00 | 57 | 1015.3 |
| 20260510202557 | 91 | 277 | 4.0 | 9.0 | 0.00 | 0.00 | 0.00 | 57 | 1015.2 |
| 20260510202054 | 92 | 249 | 3.0 | 9.0 | 0.00 | 0.00 | 0.00 | 57 | 1015.2 |
| 20260510201559 | 92 | 247 | 3.0 | 12.0 | 0.00 | 0.00 | 0.00 | 57 | 1015.2 |
| 20260510201055 | 92 | 277 | 4.0 | 12.0 | 0.00 | 0.00 | 0.00 | 57 | 1015.2 |
| 20260510200555 | 92 | 329 | 5.0 | 11.0 | 0.00 | 0.00 | 0.00 | 55 | 1015.2 |
| 20260510200058 | 93 | 309 | 3.0 | 10.0 | 0.00 | 0.00 | 0.00 | 56 | 1015.2 |
| 20260510195553 | 93 | 65 | 2.0 | 10.0 | 0.00 | 0.00 | 0.00 | 56 | 1015.2 |
| 20260510195055 | 93 | 267 | 2.0 | 12.0 | 0.00 | 0.00 | 0.00 | 55 | 1015.3 |
| 20260510194600 | 92 | 0 | 2.0 | 12.0 | 0.00 | 0.00 | 0.00 | 58 | 1015.3 |
| 20260510194055 | 92 | 149 | 2.0 | 11.0 | 0.00 | 0.00 | 0.00 | 57 | 1015.4 |
| 20260510193556 | 92 | 119 | 2.0 | 11.0 | 0.00 | 0.00 | 0.00 | 56 | 1015.4 |
| 20260510193057 | 91 | 254 | 2.0 | 5.0 | 0.00 | 0.00 | 0.00 | 57 | 1015.4 |
| 20260510192555 | 91 | 157 | 1.0 | 8.0 | 0.00 | 0.00 | 0.00 | 56 | 1015.5 |
| 20260510192055 | 90 | 239 | 2.0 | 9.0 | 0.00 | 0.00 | 0.00 | 56 | 1015.4 |
| 20260510191559 | 90 | 38 | 2.0 | 14.0 | 0.00 | 0.00 | 0.00 | 56 | 1015.3 |
| 20260510191054 | 91 | 86 | 3.0 | 14.0 | 0.00 | 0.00 | 0.00 | 54 | 1015.4 |
| 20260510190554 | 91 | 26 | 2.0 | 9.0 | 0.00 | 0.00 | 0.00 | 57 | 1015.5 |
| 20260510190103 | 90 | 200 | 2.0 | 8.0 | 0.00 | 0.00 | 0.00 | 56 | 1015.5 |
| 20260510185555 | 91 | 0 | 1.0 | 8.0 | 0.00 | 0.00 | 0.00 | 55 | 1015.6 |
| 20260510185054 | 92 | 159 | 1.0 | 9.0 | 0.00 | 0.00 | 0.00 | 55 | 1015.6 |
| 20260510184554 | 94 | 263 | 2.0 | 10.0 | 0.00 | 0.00 | 0.00 | 53 | 1015.5 |
| 20260510184055 | 94 | 281 | 4.0 | 12.0 | 0.00 | 0.00 | 0.00 | 54 | 1015.4 |
| 20260510183556 | 94 | 287 | 6.0 | 12.0 | 0.00 | 0.00 | 0.00 | 54 | 1015.5 |
| 20260510183057 | 95 | 268 | 5.0 | 12.0 | 0.00 | 0.00 | 0.00 | 53 | 1015.5 |
| 20260510182555 | 95 | 274 | 5.0 | 15.0 | 0.00 | 0.00 | 0.00 | 53 | 1015.4 |
| 20260510182054 | 96 | 252 | 8.0 | 15.0 | 0.00 | 0.00 | 0.00 | 48 | 1015.4 |
| 20260510181608 | 97 | 304 | 4.0 | 11.0 | 0.00 | 0.00 | 0.00 | 51 | 1015.3 |
| 20260510181053 | 96 | 258 | 6.0 | 11.0 | 0.00 | 0.00 | 0.00 | 50 | 1015.3 |
| 20260510180555 | 96 | 273 | 3.0 | 10.0 | 0.00 | 0.00 | 0.00 | 51 | 1015.3 |
| 20260510180107 | 95 | 255 | 4.0 | 10.0 | 0.00 | 0.00 | 0.00 | 54 | 1015.4 |
| 20260510175553 | 95 | 274 | 3.0 | 10.0 | 0.00 | 0.00 | 0.00 | 53 | 1015.5 |
| 20260510175055 | 94 | 246 | 2.0 | 6.0 | 0.00 | 0.00 | 0.00 | 58 | 1015.6 |
| 20260510174555 | 93 | 282 | 2.0 | 9.0 | 0.00 | 0.00 | 0.00 | 56 | 1015.6 |
| 20260510174057 | 92 | 296 | 2.0 | 9.0 | 0.00 | 0.00 | 0.00 | 58 | 1015.6 |
| 20260510173553 | 93 | 207 | 1.0 | 8.0 | 0.00 | 0.00 | 0.00 | 57 | 1015.8 |
| 20260510173055 | 94 | 285 | 2.0 | 8.0 | 0.00 | 0.00 | 0.00 | 56 | 1015.9 |
| 20260510172553 | 94 | 243 | 2.0 | 8.0 | 0.00 | 0.00 | 0.00 | 59 | 1016.0 |
| 20260510172055 | 93 | 217 | 3.0 | 7.0 | 0.00 | 0.00 | 0.00 | 61 | 1016.0 |
| 20260510171602 | 93 | 311 | 1.0 | 10.0 | 0.00 | 0.00 | 0.00 | 58 | 1016.1 |
| 20260510171053 | 93 | 264 | 4.0 | 10.0 | 0.00 | 0.00 | 0.00 | 58 | 1016.2 |
| 20260510170553 | 93 | 255 | 4.0 | 9.0 | 0.00 | 0.00 | 0.00 | 61 | 1016.2 |
| 20260510170121 | 93 | 191 | 2.0 | 7.0 | 0.00 | 0.00 | 0.00 | 64 | 1016.3 |
| 20260510165555 | 92 | 256 | 1.0 | 9.0 | 0.00 | 0.00 | 0.00 | 58 | 1016.5 |
| 20260510165056 | 92 | 251 | 1.0 | 9.0 | 0.00 | 0.00 | 0.00 | 59 | 1016.4 |
| 20260510164605 | 93 | 246 | 1.0 | 9.0 | 0.00 | 0.00 | 0.00 | 58 | 1016.4 |
| 20260510164054 | 93 | 267 | 3.0 | 9.0 | 0.00 | 0.00 | 0.00 | 59 | 1016.6 |
| 20260510163556 | 92 | 209 | 3.0 | 9.0 | 0.00 | 0.00 | 0.00 | 60 | 1016.7 |
| 20260510163056 | 92 | 267 | 2.0 | 8.0 | 0.00 | 0.00 | 0.00 | 61 | 1016.6 |
| 20260510162555 | 91 | 122 | 1.0 | 9.0 | 0.00 | 0.00 | 0.00 | 60 | 1016.8 |
| 20260510162053 | 92 | 270 | 2.0 | 9.0 | 0.00 | 0.00 | 0.00 | 62 | 1016.8 |
| 20260510161554 | 92 | 249 | 1.0 | 7.0 | 0.00 | 0.00 | 0.00 | 64 | 1017.0 |
| 20260510161053 | 91 | 0 | 2.0 | 7.0 | 0.00 | 0.00 | 0.00 | 62 | 1017.0 |
| 20260510160554 | 91 | 275 | 1.0 | 6.0 | 0.00 | 0.00 | 0.00 | 66 | 1017.0 |
| 20260510160058 | 88 | 119 | 2.0 | 6.0 | 0.00 | 0.00 | 0.00 | 65 | 1016.9 |
| 20260510155553 | 89 | 165 | 1.0 | 5.0 | 0.00 | 0.00 | 0.00 | 66 | 1017.0 |
| 20260510155053 | 89 | 103 | 2.0 | 6.0 | 0.00 | 0.00 | 0.00 | 65 | 1017.0 |
| 20260510154558 | 89 | 256 | 2.0 | 8.0 | 0.00 | 0.00 | 0.00 | 65 | 1017.0 |
| 20260510154052 | 91 | 66 | 2.0 | 8.0 | 0.00 | 0.00 | 0.00 | 65 | 1016.9 |
| 20260510153557 | 90 | 243 | 2.0 | 8.0 | 0.00 | 0.00 | 0.00 | 67 | 1016.8 |
| 20260510153057 | 89 | 233 | 3.0 | 7.0 | 0.00 | 0.00 | 0.00 | 66 | 1016.9 |
| 20260510152554 | 89 | 210 | 2.0 | 5.0 | 0.00 | 0.00 | 0.00 | 66 | 1017.0 |
| 20260510152054 | 90 | 272 | 1.0 | 7.0 | 0.00 | 0.00 | 0.00 | 65 | 1016.8 |
| 20260510151557 | 89 | 360 | 1.0 | 10.0 | 0.00 | 0.00 | 0.00 | 67 | 1016.8 |
| 20260510151052 | 89 | 159 | 3.0 | 10.0 | 0.00 | 0.00 | 0.00 | 68 | 1016.9 |
| 20260510150555 | 88 | 168 | 2.0 | 10.0 | 0.00 | 0.00 | 0.00 | 67 | 1016.9 |
| 20260510150055 | 88 | 278 | 3.0 | 7.0 | 0.00 | 0.00 | 0.00 | 67 | 1016.9 |
| 20260510145554 | 87 | 246 | 1.0 | 9.0 | 0.00 | 0.00 | 0.00 | 69 | 1017.0 |
| 20260510145054 | 86 | 0 | 2.0 | 9.0 | 0.00 | 0.00 | 0.00 | 71 | 1016.9 |
| 20260510144555 | 87 | 134 | 2.0 | 8.0 | 0.00 | 0.00 | 0.00 | 68 | 1016.9 |
| 20260510144055 | 88 | 184 | 1.0 | 8.0 | 0.00 | 0.00 | 0.00 | 69 | 1016.9 |
| 20260510143553 | 87 | 0 | 2.0 | 8.0 | 0.00 | 0.00 | 0.00 | 70 | 1016.9 |
| 20260510143056 | 87 | 26 | 1.0 | 8.0 | 0.00 | 0.00 | 0.00 | 69 | 1016.8 |
| 20260510142553 | 87 | 325 | 1.0 | 8.0 | 0.00 | 0.00 | 0.00 | 70 | 1016.7 |
| 20260510142053 | 86 | 176 | 3.0 | 8.0 | 0.00 | 0.00 | 0.00 | 71 | 1016.6 |
| 20260510141555 | 86 | 140 | 3.0 | 9.0 | 0.00 | 0.00 | 0.00 | 70 | 1016.6 |
| 20260510141053 | 86 | 169 | 3.0 | 9.0 | 0.00 | 0.00 | 0.00 | 72 | 1016.6 |
| 20260510140552 | 85 | 178 | 2.0 | 10.0 | 0.00 | 0.00 | 0.00 | 73 | 1016.6 |
| 20260510140054 | 85 | 194 | 3.0 | 10.0 | 0.00 | 0.00 | 0.00 | 75 | 1016.6 |
| 20260510135556 | 84 | 181 | 3.0 | 10.0 | 0.00 | 0.00 | 0.00 | 75 | 1016.6 |
| 20260510135056 | 83 | 155 | 3.0 | 10.0 | 0.00 | 0.00 | 0.00 | 75 | 1016.6 |
| 20260510134600 | 82 | 147 | 2.0 | 10.0 | 0.00 | 0.00 | 0.00 | 78 | 1016.6 |
| 20260510134055 | 82 | 131 | 1.0 | 6.0 | 0.00 | 0.00 | 0.00 | 77 | 1016.6 |
| 20260510133558 | 82 | 123 | 1.0 | 9.0 | 0.00 | 0.00 | 0.00 | 78 | 1016.6 |
| 20260510133057 | 82 | 128 | 1.0 | 9.0 | 0.00 | 0.00 | 0.00 | 78 | 1016.5 |
| 20260510132554 | 81 | 142 | 3.0 | 8.0 | 0.00 | 0.00 | 0.00 | 79 | 1016.4 |
| 20260510132054 | 81 | 123 | 2.0 | 9.0 | 0.00 | 0.00 | 0.00 | 79 | 1016.4 |
| 20260510131556 | 81 | 260 | 1.0 | 9.0 | 0.00 | 0.00 | 0.00 | 80 | 1016.4 |
| 20260510131055 | 80 | 159 | 1.0 | 7.0 | 0.00 | 0.00 | 0.00 | 83 | 1016.5 |
| 20260510130553 | 79 | 147 | 1.0 | 7.0 | 0.00 | 0.00 | 0.00 | 83 | 1016.4 |
| 20260510130054 | 79 | 159 | 2.0 | 7.0 | 0.00 | 0.00 | 0.00 | 84 | 1016.4 |
| 20260510125552 | 79 | 162 | 1.0 | 5.0 | 0.00 | 0.00 | 0.00 | 84 | 1016.4 |
| 20260510125053 | 79 | 0 | 2.0 | 5.0 | 0.00 | 0.00 | 0.00 | 84 | 1016.4 |
| 20260510124608 | 78 | 0 | 0.0 | 4.0 | 0.00 | 0.00 | 0.00 | 85 | 1016.3 |
| 20260510124056 | 78 | 0 | 0.0 | 5.0 | 0.00 | 0.00 | 0.00 | 86 | 1016.3 |
| 20260510123556 | 78 | 0 | 1.0 | 6.0 | 0.00 | 0.00 | 0.00 | 86 | 1016.2 |
| 20260510123054 | 77 | 0 | 0.0 | 7.0 | 0.00 | 0.00 | 0.00 | 87 | 1016.2 |
| 20260510122556 | 77 | 152 | 2.0 | 7.0 | 0.00 | 0.00 | 0.00 | 87 | 1016.2 |
| 20260510122052 | 76 | 177 | 1.0 | 6.0 | 0.00 | 0.00 | 0.00 | 89 | 1016.1 |
| 20260510121554 | 76 | 0 | 2.0 | 6.0 | 0.00 | 0.00 | 0.00 | 90 | 1016.1 |
| 20260510121053 | 75 | 0 | 1.0 | 4.0 | 0.00 | 0.00 | 0.00 | 91 | 1016.0 |
| 20260510120555 | 75 | 296 | 0.0 | 3.0 | 0.00 | 0.00 | 0.00 | 91 | 1015.9 |
| 20260510120111 | 75 | 0 | 0.0 | 3.0 | 0.00 | 0.00 | 0.00 | 92 | 1015.8 |
| 20260510115553 | 74 | 336 | 0.0 | 4.0 | 0.00 | 0.00 | 0.00 | 93 | 1015.7 |
| 20260510115053 | 74 | 0 | 1.0 | 4.0 | 0.00 | 0.00 | 0.00 | 93 | 1015.7 |
| 20260510114601 | 74 | 142 | 0.0 | 4.0 | 0.00 | 0.00 | 0.00 | 93 | 1015.6 |
| 20260510114056 | 73 | 0 | 0.0 | 3.0 | 0.00 | 0.00 | 0.00 | 93 | 1015.6 |
| 20260510113555 | 73 | 155 | 0.0 | 4.0 | 0.00 | 0.00 | 0.00 | 93 | 1015.4 |
| 20260510113052 | 73 | 134 | 0.0 | 4.0 | 0.00 | 0.00 | 0.00 | 93 | 1015.3 |
| 20260510112553 | 73 | 136 | 0.0 | 4.0 | 0.00 | 0.00 | 0.00 | 93 | 1015.2 |
| 20260510112053 | 73 | 0 | 0.0 | 4.0 | 0.00 | 0.00 | 0.00 | 93 | 1015.2 |
| 20260510111557 | 73 | 0 | 0.0 | 4.0 | 0.00 | 0.00 | 0.00 | 93 | 1014.8 |
| 20260510111054 | 73 | 0 | 0.0 | 2.0 | 0.00 | 0.00 | 0.00 | 93 | 1014.8 |
| 20260510110554 | 73 | 0 | 0.0 | 2.0 | 0.00 | 0.00 | 0.00 | 93 | 1014.9 |
| 20260510110055 | 73 | 0 | 0.0 | 2.0 | 0.00 | 0.00 | 0.00 | 93 | 1014.7 |
| 20260510105553 | 73 | 0 | 0.0 | 2.0 | 0.00 | 0.00 | 0.00 | 93 | 1014.6 |
| 20260510105055 | 73 | 0 | 0.0 | 2.0 | 0.00 | 0.00 | 0.00 | 93 | 1014.5 |
| 20260510104558 | 73 | 0 | 0.0 | 1.0 | 0.00 | 0.00 | 0.00 | 93 | 1014.4 |
| 20260510104054 | 73 | 0 | 0.0 | 2.0 | 0.00 | 0.00 | 0.00 | 93 | 1014.5 |
| 20260510103552 | 73 | 0 | 0.0 | 3.0 | 0.00 | 0.00 | 0.00 | 93 | 1014.5 |
| 20260510103055 | 73 | 0 | 0.0 | 4.0 | 0.00 | 0.00 | 0.00 | 93 | 1014.4 |
| 20260510102554 | 73 | 0 | 0.0 | 4.0 | 0.00 | 0.00 | 0.00 | 93 | 1014.4 |
| 20260510102054 | 73 | 133 | 0.0 | 4.0 | 0.00 | 0.00 | 0.00 | 93 | 1014.2 |
| 20260510101557 | 73 | 138 | 1.0 | 5.0 | 0.00 | 0.00 | 0.00 | 93 | 1014.1 |
| 20260510101053 | 73 | 0 | 1.0 | 5.0 | 0.00 | 0.00 | 0.00 | 93 | 1014.0 |
| 20260510100553 | 73 | 154 | 0.0 | 3.0 | 0.00 | 0.00 | 0.00 | 93 | 1014.0 |
| 20260510095553 | 73 | 163 | 0.0 | 5.0 | 0.00 | 0.00 | 0.00 | 93 | 1013.9 |
| 20260510095053 | 73 | 0 | 0.0 | 5.0 | 0.00 | 0.00 | 0.00 | 93 | 1014.0 |
| 20260510094558 | 73 | 123 | 1.0 | 4.0 | 0.00 | 0.00 | 0.00 | 93 | 1013.9 |
| 20260510094055 | 73 | 0 | 0.0 | 4.0 | 0.00 | 0.00 | 0.00 | 93 | 1013.9 |
| 20260510093555 | 73 | 132 | 0.0 | 5.0 | 0.00 | 0.00 | 0.00 | 93 | 1013.9 |
| 20260510093102 | 73 | 163 | 0.0 | 6.0 | 0.00 | 0.00 | 0.00 | 93 | 1013.8 |
| 20260510092556 | 73 | 142 | 1.0 | 6.0 | 0.00 | 0.00 | 0.00 | 93 | 1013.8 |
| 20260510092055 | 73 | 155 | 1.0 | 6.0 | 0.00 | 0.00 | 0.00 | 93 | 1013.7 |
| 20260510091554 | 73 | 0 | 0.0 | 4.0 | 0.00 | 0.00 | 0.00 | 93 | 1013.8 |
| 20260510091052 | 73 | 166 | 0.0 | 2.0 | 0.00 | 0.00 | 0.00 | 93 | 1013.7 |
| 20260510090555 | 73 | 157 | 0.0 | 2.0 | 0.00 | 0.00 | 0.00 | 93 | 1013.7 |
| 20260510090053 | 73 | 0 | 0.0 | 4.0 | 0.00 | 0.00 | 0.00 | 93 | 1013.7 |
| 20260510085557 | 73 | 157 | 0.0 | 6.0 | 0.00 | 0.00 | 0.00 | 93 | 1013.6 |
| 20260510085100 | 73 | 128 | 0.0 | 6.0 | 0.00 | 0.00 | 0.00 | 93 | 1013.4 |
| 20260510084600 | 73 | 151 | 1.0 | 6.0 | 0.00 | 0.00 | 0.00 | 93 | 1013.4 |
| 20260510084057 | 73 | 146 | 1.0 | 4.0 | 0.00 | 0.00 | 0.00 | 93 | 1013.3 |
| 20260510083557 | 73 | 129 | 1.0 | 8.0 | 0.00 | 0.00 | 0.00 | 93 | 1013.3 |
| 20260510083107 | 73 | 136 | 1.0 | 8.0 | 0.00 | 0.00 | 0.00 | 93 | 1013.2 |
| 20260510082556 | 73 | 138 | 2.0 | 7.0 | 0.00 | 0.00 | 0.00 | 93 | 1013.2 |
| 20260510082056 | 73 | 150 | 2.0 | 7.0 | 0.00 | 0.00 | 0.00 | 93 | 1013.2 |
| 20260510081559 | 73 | 108 | 1.0 | 5.0 | 0.00 | 0.00 | 0.00 | 92 | 1013.2 |
| 20260510081058 | 73 | 141 | 1.0 | 4.0 | 0.00 | 0.00 | 0.00 | 92 | 1013.2 |
| 20260510080559 | 73 | 138 | 1.0 | 4.0 | 0.00 | 0.00 | 0.00 | 92 | 1013.2 |
| 20260510080056 | 73 | 131 | 1.0 | 4.0 | 0.00 | 0.00 | 0.00 | 92 | 1013.3 |
| 20260510075557 | 73 | 134 | 1.0 | 5.0 | 0.00 | 0.00 | 0.00 | 92 | 1013.5 |
| 20260510075057 | 73 | 0 | 1.0 | 7.0 | 0.00 | 0.00 | 0.00 | 92 | 1013.4 |
| 20260510074556 | 74 | 132 | 1.0 | 7.0 | 0.00 | 0.00 | 0.00 | 92 | 1013.4 |
| 20260510074057 | 74 | 0 | 2.0 | 6.0 | 0.00 | 0.00 | 0.00 | 92 | 1013.4 |
| 20260510073557 | 74 | 106 | 1.0 | 4.0 | 0.00 | 0.00 | 0.00 | 92 | 1013.5 |
| 20260510073106 | 74 | 127 | 1.0 | 5.0 | 0.00 | 0.00 | 0.00 | 92 | 1013.5 |
| 20260510072557 | 74 | 125 | 1.0 | 5.0 | 0.00 | 0.00 | 0.00 | 92 | 1013.6 |
| 20260510072101 | 74 | 0 | 1.0 | 5.0 | 0.00 | 0.00 | 0.00 | 92 | 1013.7 |
| 20260510071555 | 74 | 157 | 1.0 | 5.0 | 0.00 | 0.00 | 0.00 | 92 | 1013.8 |
| 20260510071055 | 74 | 0 | 1.0 | 4.0 | 0.00 | 0.00 | 0.00 | 92 | 1013.8 |
| 20260510070556 | 74 | 134 | 2.0 | 5.0 | 0.00 | 0.00 | 0.00 | 92 | 1013.7 |
| 20260510070059 | 74 | 119 | 1.0 | 5.0 | 0.00 | 0.00 | 0.00 | 92 | 1013.7 |
| 20260510065556 | 74 | 122 | 1.0 | 4.0 | 0.00 | 0.00 | 0.00 | 92 | 1013.7 |
| 20260510065056 | 74 | 161 | 0.0 | 4.0 | 0.00 | 0.00 | 0.00 | 92 | 1013.8 |
| 20260510064558 | 74 | 149 | 0.0 | 4.0 | 0.00 | 0.00 | 0.00 | 92 | 1013.9 |
| 20260510064055 | 74 | 123 | 1.0 | 4.0 | 0.00 | 0.00 | 0.00 | 92 | 1013.8 |
| 20260510063555 | 74 | 127 | 1.0 | 3.0 | 0.00 | 0.00 | 0.00 | 92 | 1013.9 |
| 20260510063055 | 74 | 121 | 1.0 | 3.0 | 0.00 | 0.00 | 0.00 | 92 | 1014.0 |
| 20260510062555 | 74 | 127 | 0.0 | 3.0 | 0.00 | 0.00 | 0.00 | 92 | 1014.2 |
| 20260510062055 | 74 | 0 | 0.0 | 3.0 | 0.00 | 0.00 | 0.00 | 92 | 1014.4 |
| 20260510061556 | 74 | 0 | 0.0 | 3.0 | 0.00 | 0.00 | 0.00 | 92 | 1014.5 |
| 20260510061056 | 74 | 0 | 1.0 | 3.0 | 0.00 | 0.00 | 0.00 | 91 | 1014.4 |
| 20260510060556 | 74 | 158 | 0.0 | 3.0 | 0.00 | 0.00 | 0.00 | 91 | 1014.5 |
| 20260510060057 | 74 | 119 | 0.0 | 1.0 | 0.00 | 0.00 | 0.00 | 91 | 1014.5 |
| 20260510055555 | 74 | 0 | 0.0 | 1.0 | 0.00 | 0.00 | 0.00 | 91 | 1014.4 |
| 20260510055059 | 74 | 0 | 0.0 | 1.0 | 0.00 | 0.00 | 0.00 | 90 | 1014.5 |
| 20260510054555 | 74 | 0 | 0.0 | 1.0 | 0.00 | 0.00 | 0.00 | 90 | 1014.6 |
| 20260510054056 | 74 | 0 | 0.0 | 1.0 | 0.00 | 0.00 | 0.00 | 90 | 1014.7 |
| 20260510053555 | 74 | 0 | 0.0 | 1.0 | 0.00 | 0.00 | 0.00 | 90 | 1014.8 |
| 20260510053059 | 74 | 0 | 0.0 | 1.0 | 0.00 | 0.00 | 0.00 | 89 | 1014.8 |
| 20260510052556 | 74 | 0 | 0.0 | 2.0 | 0.00 | 0.00 | 0.00 | 89 | 1014.9 |
| 20260510052055 | 74 | 0 | 0.0 | 2.0 | 0.00 | 0.00 | 0.00 | 89 | 1014.8 |
| 20260510051602 | 74 | 0 | 0.0 | 2.0 | 0.00 | 0.00 | 0.00 | 89 | 1014.9 |
| 20260510051058 | 75 | 0 | 0.0 | 2.0 | 0.00 | 0.00 | 0.00 | 88 | 1015.0 |
| 20260510050557 | 75 | 0 | 0.0 | 2.0 | 0.00 | 0.00 | 0.00 | 88 | 1015.0 |
| 20260510050100 | 75 | 0 | 1.0 | 2.0 | 0.00 | 0.00 | 0.00 | 88 | 1015.1 |
| 20260510045557 | 75 | 0 | 0.0 | 2.0 | 0.00 | 0.00 | 0.00 | 87 | 1015.1 |
| 20260510045057 | 75 | 0 | 1.0 | 2.0 | 0.00 | 0.00 | 0.00 | 87 | 1015.1 |
| 20260510044555 | 75 | 121 | 0.0 | 2.0 | 0.00 | 0.00 | 0.00 | 86 | 1015.1 |
| 20260510044056 | 75 | 0 | 0.0 | 1.0 | 0.00 | 0.00 | 0.00 | 86 | 1015.3 |
| 20260510043557 | 75 | 0 | 0.0 | 3.0 | 0.00 | 0.00 | 0.00 | 86 | 1015.4 |
| 20260510043058 | 75 | 0 | 0.0 | 3.0 | 0.00 | 0.00 | 0.00 | 86 | 1015.4 |
| 20260510042556 | 75 | 0 | 0.0 | 4.0 | 0.00 | 0.00 | 0.00 | 85 | 1015.3 |
| 20260510042055 | 76 | 134 | 1.0 | 4.0 | 0.00 | 0.00 | 0.00 | 85 | 1015.3 |
| 20260510041556 | 75 | 103 | 0.0 | 3.0 | 0.00 | 0.00 | 0.00 | 85 | 1015.3 |
| 20260510041056 | 75 | 104 | 1.0 | 3.0 | 0.00 | 0.00 | 0.00 | 85 | 1015.3 |
| 20260510040558 | 75 | 107 | 0.0 | 2.0 | 0.00 | 0.00 | 0.00 | 85 | 1015.4 |
| 20260510040057 | 75 | 0 | 0.0 | 2.0 | 0.00 | 0.00 | 0.00 | 85 | 1015.4 |
| 20260510035557 | 75 | 0 | 0.0 | 2.0 | 0.00 | 0.00 | 0.00 | 85 | 1015.4 |
| 20260510035056 | 75 | 103 | 0.0 | 3.0 | 0.00 | 0.00 | 0.00 | 85 | 1015.3 |
| 20260510034559 | 75 | 0 | 0.0 | 3.0 | 0.00 | 0.00 | 0.00 | 85 | 1015.4 |
| 20260510034057 | 75 | 0 | 1.0 | 3.0 | 0.00 | 0.00 | 0.00 | 84 | 1015.3 |
| 20260510033557 | 75 | 0 | 0.0 | 2.0 | 0.00 | 0.00 | 0.00 | 84 | 1015.3 |
| 20260510033129 | 75 | 115 | 0.0 | 1.0 | 0.00 | 0.00 | 0.00 | 84 | 1015.4 |
| 20260510032557 | 75 | 104 | 0.0 | 1.0 | 0.00 | 0.00 | 0.00 | 84 | 1015.3 |
| 20260510032057 | 75 | 0 | 0.0 | 2.0 | 0.00 | 0.00 | 0.00 | 84 | 1015.4 |
| 20260510031557 | 75 | 0 | 0.0 | 2.0 | 0.00 | 0.00 | 0.00 | 83 | 1015.3 |
| 20260510031056 | 75 | 0 | 0.0 | 1.0 | 0.00 | 0.00 | 0.00 | 83 | 1015.2 |
| 20260510030556 | 75 | 0 | 0.0 | 1.0 | 0.00 | 0.00 | 0.00 | 83 | 1015.2 |
| 20260510030055 | 75 | 0 | 0.0 | 2.0 | 0.00 | 0.00 | 0.00 | 83 | 1015.3 |
| 20260510025557 | 75 | 0 | 0.0 | 2.0 | 0.00 | 0.00 | 0.00 | 83 | 1015.3 |
| 20260510025129 | 75 | 0 | 0.0 | 2.0 | 0.00 | 0.00 | 0.00 | 82 | 1015.1 |
| 20260510024605 | 75 | 113 | 0.0 | 3.0 | 0.00 | 0.00 | 0.00 | 82 | 1015.1 |
| 20260510024059 | 75 | 0 | 1.0 | 3.0 | 0.00 | 0.00 | 0.00 | 82 | 1015.0 |
| 20260510023557 | 75 | 119 | 0.0 | 3.0 | 0.00 | 0.00 | 0.00 | 82 | 1014.9 |
| 20260510023056 | 76 | 121 | 0.0 | 3.0 | 0.00 | 0.00 | 0.00 | 82 | 1015.1 |
| 20260510022558 | 76 | 123 | 1.0 | 3.0 | 0.00 | 0.00 | 0.00 | 82 | 1015.0 |
| 20260510022056 | 76 | 126 | 0.0 | 3.0 | 0.00 | 0.00 | 0.00 | 82 | 1014.9 |
| 20260510021557 | 76 | 92 | 1.0 | 3.0 | 0.00 | 0.00 | 0.00 | 82 | 1014.8 |
| 20260510021058 | 76 | 96 | 1.0 | 3.0 | 0.00 | 0.00 | 0.00 | 82 | 1014.9 |
| 20260510020558 | 76 | 91 | 0.0 | 3.0 | 0.00 | 0.00 | 0.00 | 82 | 1014.9 |
| 20260510020058 | 76 | 107 | 0.0 | 3.0 | 0.00 | 0.00 | 0.00 | 81 | 1014.8 |
| 20260510015557 | 76 | 74 | 0.0 | 3.0 | 0.00 | 0.00 | 0.00 | 81 | 1014.7 |
| 20260510015057 | 76 | 101 | 0.0 | 2.0 | 0.00 | 0.00 | 0.00 | 81 | 1014.7 |
| 20260510014557 | 76 | 0 | 0.0 | 2.0 | 0.00 | 0.00 | 0.00 | 81 | 1014.6 |
| 20260510014058 | 76 | 5 | 0.0 | 2.0 | 0.00 | 0.00 | 0.00 | 81 | 1014.7 |
| 20260510013558 | 76 | 0 | 0.0 | 2.0 | 0.00 | 0.00 | 0.00 | 81 | 1014.7 |
| 20260510013056 | 76 | 336 | 0.0 | 2.0 | 0.00 | 0.00 | 0.00 | 81 | 1014.5 |
| 20260510012600 | 76 | 44 | 0.0 | 2.0 | 0.00 | 0.00 | 0.00 | 81 | 1014.3 |
| 20260510012057 | 76 | 97 | 0.0 | 2.0 | 0.00 | 0.00 | 0.00 | 81 | 1014.3 |
| 20260510011557 | 76 | 336 | 0.0 | 3.0 | 0.00 | 0.00 | 0.00 | 81 | 1014.3 |
| 20260510011058 | 76 | 49 | 0.0 | 3.0 | 0.00 | 0.00 | 0.00 | 81 | 1014.2 |
| 20260510010558 | 76 | 0 | 0.0 | 4.0 | 0.00 | 0.00 | 0.00 | 81 | 1014.2 |
| 20260510010055 | 76 | 0 | 1.0 | 4.0 | 0.00 | 0.00 | 0.00 | 81 | 1014.2 |
| 20260510005558 | 76 | 0 | 2.0 | 5.0 | 0.00 | 0.00 | 0.00 | 81 | 1014.2 |
| 20260510005057 | 76 | 327 | 0.0 | 5.0 | 0.00 | 0.00 | 0.00 | 81 | 1014.1 |
| 20260510004555 | 76 | 322 | 2.0 | 5.0 | 0.00 | 0.00 | 0.00 | 80 | 1013.9 |
| 20260510004057 | 77 | 318 | 1.0 | 6.0 | 0.00 | 0.00 | 0.00 | 80 | 1013.7 |
| 20260510003557 | 77 | 0 | 1.0 | 6.0 | 0.00 | 0.00 | 0.00 | 80 | 1013.7 |
| 20260510003106 | 77 | 58 | 0.0 | 6.0 | 0.00 | 0.00 | 0.00 | 80 | 1013.7 |
| 20260510002558 | 77 | 49 | 0.0 | 6.0 | 0.00 | 0.00 | 0.00 | 80 | 1013.6 |
| 20260510002057 | 77 | 5 | 1.0 | 5.0 | 0.00 | 0.00 | 0.00 | 80 | 1013.6 |
| 20260510001555 | 78 | 0 | 0.0 | 6.0 | 0.00 | 0.00 | 0.00 | 80 | 1013.5 |
| 20260510001058 | 78 | 40 | 1.0 | 6.0 | 0.00 | 0.00 | 0.00 | 80 | 1013.4 |
| 20260510000601 | 78 | 327 | 3.0 | 9.0 | 0.00 | 0.00 | 0.00 | 80 | 1013.4 |
| 20260510000056 | 79 | 334 | 4.0 | 10.0 | 0.00 | 0.00 | 0.00 | 80 | 1013.4 |
| 20260509235557 | 79 | 338 | 3.0 | 10.0 | 0.00 | 0.00 | 0.00 | 79 | 1013.4 |
| 20260509235057 | 80 | 315 | 4.0 | 12.0 | 0.00 | 0.00 | 0.00 | 78 | 1013.3 |
| 20260509234609 | 81 | 329 | 5.0 | 12.0 | 0.00 | 0.00 | 0.00 | 76 | 1013.1 |
| 20260509234057 | 82 | 325 | 5.0 | 10.0 | 0.00 | 0.00 | 0.00 | 72 | 1013.1 |
| 20260509233601 | 82 | 326 | 3.0 | 10.0 | 0.00 | 0.00 | 0.00 | 71 | 1012.9 |
| 20260509233057 | 83 | 320 | 5.0 | 10.0 | 0.00 | 0.00 | 0.00 | 71 | 1012.9 |
| 20260509232558 | 83 | 332 | 4.0 | 10.0 | 0.00 | 0.00 | 0.00 | 70 | 1012.8 |
| 20260509232058 | 83 | 318 | 3.0 | 10.0 | 0.00 | 0.00 | 0.00 | 70 | 1012.9 |
| 20260509231601 | 83 | 286 | 5.0 | 10.0 | 0.00 | 0.00 | 0.00 | 69 | 1012.9 |
| 20260509231059 | 84 | 311 | 3.0 | 8.0 | 0.00 | 0.00 | 0.00 | 69 | 1012.8 |
| 20260509230556 | 84 | 321 | 4.0 | 8.0 | 0.00 | 0.00 | 0.00 | 69 | 1012.7 |
| 20260509230104 | 84 | 316 | 2.0 | 10.0 | 0.00 | 0.00 | 0.00 | 68 | 1012.7 |
| 20260509225556 | 84 | 304 | 4.0 | 10.0 | 0.00 | 0.00 | 0.00 | 67 | 1012.7 |
| 20260509225056 | 85 | 306 | 5.0 | 10.0 | 0.00 | 0.00 | 0.00 | 67 | 1012.6 |
| 20260509224603 | 85 | 310 | 4.0 | 10.0 | 0.00 | 0.00 | 0.00 | 66 | 1012.6 |
| 20260509224100 | 85 | 272 | 3.0 | 9.0 | 0.00 | 0.00 | 0.00 | 65 | 1012.6 |
| 20260509223557 | 86 | 322 | 3.0 | 9.0 | 0.00 | 0.00 | 0.00 | 65 | 1012.5 |
| 20260509223103 | 87 | 313 | 3.0 | 9.0 | 0.00 | 0.00 | 0.00 | 63 | 1012.3 |
| 20260509222601 | 87 | 275 | 3.0 | 11.0 | 0.00 | 0.00 | 0.00 | 62 | 1012.3 |
| 20260509222057 | 88 | 268 | 4.0 | 11.0 | 0.00 | 0.00 | 0.00 | 59 | 1012.3 |
| 20260509221558 | 88 | 297 | 4.0 | 9.0 | 0.00 | 0.00 | 0.00 | 57 | 1012.2 |
| 20260509221058 | 89 | 294 | 2.0 | 9.0 | 0.00 | 0.00 | 0.00 | 57 | 1012.2 |
| 20260509220557 | 89 | 305 | 2.0 | 9.0 | 0.00 | 0.00 | 0.00 | 56 | 1012.1 |
| 20260509220100 | 89 | 298 | 3.0 | 8.0 | 0.00 | 0.00 | 0.00 | 57 | 1012.0 |
| 20260509215557 | 89 | 282 | 2.0 | 9.0 | 0.00 | 0.00 | 0.00 | 56 | 1012.0 |
| 20260509215057 | 89 | 315 | 4.0 | 9.0 | 0.00 | 0.00 | 0.00 | 56 | 1012.0 |
| 20260509214559 | 89 | 280 | 2.0 | 10.0 | 0.00 | 0.00 | 0.00 | 57 | 1012.0 |
| 20260509214101 | 89 | 300 | 3.0 | 10.0 | 0.00 | 0.00 | 0.00 | 57 | 1011.8 |
| 20260509213556 | 89 | 291 | 3.0 | 10.0 | 0.00 | 0.00 | 0.00 | 58 | 1011.8 |
| 20260509213058 | 90 | 340 | 4.0 | 10.0 | 0.00 | 0.00 | 0.00 | 57 | 1011.7 |
| 20260509212557 | 90 | 289 | 3.0 | 9.0 | 0.00 | 0.00 | 0.00 | 57 | 1011.7 |
| 20260509212056 | 91 | 272 | 3.0 | 9.0 | 0.00 | 0.00 | 0.00 | 56 | 1011.6 |
| 20260509211559 | 91 | 307 | 3.0 | 11.0 | 0.00 | 0.00 | 0.00 | 56 | 1011.6 |